Location: Deneb Observatory
(47.2267°N, 100.4953°W)
Time: 15:34:22
(UTC-05:00)

Iridium 66 - Visible Passes

Search period start: 25 May 2018 00:00
Search period end: 04 June 2018 00:00
Orbit: 761 x 765 km, 86.4° (Epoch: 25 May)

Date Brightness Start Highest point End Pass type
(mag) Time Alt. Az. Time Alt. Az. Time Alt. Az.
25 May 6.6 02:03:37 10° N 02:08:39 50° E 02:10:33 33° SE visible
25 May 7.5 03:44:46 10° NNW 03:48:42 22° W 03:50:43 18° WSW visible
26 May 7.5 01:26:14 10° NNE 01:30:35 27° ENE 01:32:46 20° ESE visible
26 May 6.6 03:06:20 10° NNW 03:11:09 41° W 03:12:55 31° SW visible
27 May 8.2 00:49:29 10° NE 00:52:20 15° ENE 00:54:59 11° E visible
27 May 5.9 02:28:16 10° N 02:33:26 80° W 02:35:09 43° S visible
27 May 8.2 04:11:40 10° WNW 04:12:56 11° WNW 04:14:12 10° W visible
28 May 6.4 01:50:30 10° N 01:55:34 54° E 01:57:22 36° SE visible
28 May 7.6 03:31:48 10° NNW 03:35:34 21° WNW 03:37:32 17° WSW visible
29 May 7.4 01:13:04 10° NNE 01:17:31 29° ENE 01:19:36 22° ESE visible
29 May 6.8 02:53:17 10° NNW 02:58:02 39° W 02:59:46 30° SW visible
30 May 8.1 00:36:12 10° NNE 00:39:18 16° ENE 00:41:50 12° ESE visible
30 May 6.0 02:15:11 10° N 02:20:21 74° W 02:22:00 43° SSW visible
31 May 6.3 01:37:23 10° N 01:42:29 58° E 01:44:14 38° SE visible
31 May 7.7 03:18:49 10° NNW 03:22:26 20° WNW 03:24:24 16° WSW visible
01 Jun 7.2 00:59:54 10° NNE 01:04:28 31° ENE 01:06:29 23° ESE visible
01 Jun 6.9 02:40:14 10° NNW 02:44:55 36° W 02:46:39 28° WSW visible
02 Jun 8.0 00:22:56 10° NNE 00:26:16 17° ENE 00:28:45 13° ESE visible
02 Jun 6.0 02:02:06 10° N 02:07:14 69° W 02:08:54 42° SSW visible
03 Jun 6.2 01:24:17 10° N 01:29:24 63° E 01:31:10 39° SSE visible
03 Jun 7.8 03:05:51 10° NW 03:09:17 18° WNW 03:11:20 15° WSW visible
